Weather History for Oskaloosa, IA

Change the Weather History Date:

Sunday, March 16, 2014

  Actual Average (KOTM) Record (KOTM)
Temperature  
Mean Temperature 26 °F 39 °F  
Max Temperature 32 °F 49 °F 88 °F (1927)
Min Temperature 21 °F 29 °F 1 °F (1951)
Degree Days  
Heating Degree Days 38 26  
Month to date heating degree days 469  
Since 1 July heating degree days 5354  
Cooling Degree Days 0 0  
Month to date cooling degree days 0  
Year to date cooling degree days 0  
Moisture  
Dew Point 21 °F    
Average Humidity 74    
Maximum Humidity 95    
Minimum Humidity 51    
Precipitation  
Precipitation 0.00 in 0.08 in 1.98 in (1946)
Month to date precipitation 1.09  
Year to date precipitation 3.27  
Sea Level Pressure  
Sea Level Pressure 30.24 in    
Wind  
Wind Speed 14 mph (ENE)    
Max Wind Speed 22 mph    
Max Gust Speed 26 mph    
Visibility 9 miles    
Events Rain , Snow    
T = Trace of Precipitation, MM = Missing Value Source: NWS Daily Summary

Daily Weather History Graph

Daily Weather History Graph

Search for Another Location

Airport:

Trip Planner

Search our weather history database for the weather conditions in past years. The results will help you decide how hot, cold, wet, or windy it might be!

Date:

Astronomy

Mar. 16, 2014 Rise Set
Actual Time 7:19 AM CDT 7:17 PM CDT
Civil Twilight 6:52 AM CDT 7:45 PM CDT
Nautical Twilight 6:20 AM CDT 8:17 PM CDT
Astronomical Twilight 5:47 AM CDT 8:50 PM CDT
Moon 7:36 PM CDT (3/16) 7:03 AM CDT (3/16)
Length of Visible Light 12h 52m
Length of Day
11h 57m
Full, 100% of the Moon is Illuminated
Mar 16
Full
Mar 16
Full
Mar 23
Last Quarter
Mar 30
New
Apr 7
First Quarter

Hourly Weather History & Observations

Time (CDT) Temp. Windchill Dew Point Humidity Pressure Visibility Wind Dir Wind Speed Gust Speed Precip Events Conditions
12:15 AM 32.0 °F 21.2 °F 30.0 °F 92% 30.19 in 7.0 mi NE 16.1 mph - N/A Rain Light Rain
12:35 AM 32.0 °F 19.8 °F 29.8 °F 92% 30.19 in 7.0 mi NE 20.7 mph 25.3 mph N/A Rain Light Rain
12:55 AM 31.8 °F 20.6 °F 29.8 °F 92% 30.20 in 5.0 mi NE 17.3 mph 25.3 mph N/A Snow Light Snow
1:15 AM 31.5 °F 19.8 °F 29.3 °F 92% 30.20 in 5.0 mi NE 18.4 mph 23.0 mph N/A Snow Light Snow
1:35 AM 31.1 °F 18.9 °F 29.1 °F 92% 30.22 in 2.5 mi NE 19.6 mph 26.5 mph N/A Snow Light Snow
1:55 AM 30.6 °F 18.6 °F 28.0 °F 90% 30.22 in 2.0 mi NE 18.4 mph 26.5 mph N/A Snow Light Snow
2:15 AM 30.2 °F 19.8 °F 28.4 °F 93% 30.22 in 2.0 mi NE 13.8 mph 20.7 mph N/A Snow Light Snow
2:35 AM 30.2 °F 18.9 °F 28.4 °F 93% 30.23 in 4.0 mi NE 16.1 mph 21.9 mph N/A Snow Light Snow
2:55 AM 30.2 °F 19.8 °F 28.2 °F 92% 30.23 in 7.0 mi NE 13.8 mph - N/A Snow Light Snow
3:15 AM 30.0 °F 21.7 °F 28.4 °F 94% 30.23 in 3.0 mi NNE 9.2 mph - N/A Snow Light Snow
3:35 AM 30.0 °F 20.5 °F 28.8 °F 95% 30.22 in 4.0 mi NNE 11.5 mph - N/A Snow Light Snow
3:55 AM 29.8 °F 19.8 °F 28.4 °F 94% 30.22 in 4.0 mi NNE 12.7 mph - N/A Snow Light Snow
4:15 AM 29.8 °F 19.3 °F 28.2 °F 94% 30.22 in 2.5 mi NNE 13.8 mph - N/A Snow Light Snow
4:35 AM 29.7 °F 19.1 °F 27.5 °F 92% 30.22 in 4.0 mi NE 13.8 mph 17.3 mph N/A Snow Light Snow
4:55 AM 29.3 °F 19.6 °F 26.8 °F 90% 30.22 in 7.0 mi NNE 11.5 mph - N/A Snow Light Snow
5:15 AM 29.7 °F 18.6 °F 25.0 °F 83% 30.23 in 10.0 mi NNE 15.0 mph - N/A   Overcast
5:35 AM 29.3 °F 18.2 °F 23.2 °F 78% 30.23 in 10.0 mi NE 15.0 mph - N/A   Overcast
5:55 AM 28.9 °F 17.7 °F 22.3 °F 76% 30.23 in 10.0 mi NE 15.0 mph - N/A   Overcast
6:15 AM 28.8 °F 17.9 °F 22.5 °F 77% 30.23 in 10.0 mi NE 13.8 mph - N/A Snow Light Snow
6:35 AM 28.4 °F 17.5 °F 22.6 °F 79% 30.24 in 10.0 mi NE 13.8 mph - N/A   Overcast
6:55 AM 28.8 °F 16.2 °F 23.9 °F 82% 30.25 in 10.0 mi ENE 18.4 mph - N/A   Overcast
7:15 AM 28.2 °F 14.5 °F 24.8 °F 87% 30.25 in 10.0 mi ENE 21.9 mph 26.5 mph N/A   Overcast
7:35 AM 27.5 °F 15.0 °F 23.9 °F 86% 30.26 in 10.0 mi ENE 17.3 mph - N/A   Overcast
7:55 AM 27.0 °F 13.2 °F 22.6 °F 84% 30.27 in 10.0 mi ENE 20.7 mph 24.2 mph N/A   Overcast
8:15 AM 26.6 °F 13.1 °F 21.7 °F 82% 30.28 in 10.0 mi ENE 19.6 mph - N/A   Overcast
8:35 AM 26.1 °F 11.6 °F 20.3 °F 79% 30.29 in 10.0 mi NE 21.9 mph 26.5 mph N/A   Overcast
8:55 AM 26.1 °F 12.0 °F 20.3 °F 79% 30.30 in 10.0 mi ENE 20.7 mph - N/A   Overcast
9:15 AM 25.5 °F 12.0 °F 19.4 °F 78% 30.30 in 10.0 mi ENE 18.4 mph - N/A   Overcast
9:35 AM 25.7 °F 12.7 °F 19.4 °F 77% 30.31 in 10.0 mi ENE 17.3 mph 24.2 mph N/A   Overcast
9:55 AM 25.9 °F 12.9 °F 18.9 °F 75% 30.31 in 10.0 mi ENE 17.3 mph - N/A   Mostly Cloudy
10:15 AM 26.2 °F 13.0 °F 17.6 °F 70% 30.32 in 10.0 mi ENE 18.4 mph 24.2 mph N/A   Scattered Clouds
10:35 AM 26.6 °F 13.4 °F 18.0 °F 70% 30.32 in 10.0 mi NNE 18.4 mph 23.0 mph N/A   Scattered Clouds
10:55 AM 26.6 °F 13.8 °F 18.3 °F 71% 30.34 in 10.0 mi NE 17.3 mph - N/A   Scattered Clouds
11:15 AM 26.1 °F 14.0 °F 17.4 °F 70% 30.34 in 10.0 mi NE 15.0 mph 23.0 mph N/A   Scattered Clouds
11:35 AM 26.6 °F 12.7 °F 17.2 °F 68% 30.35 in 10.0 mi ENE 20.7 mph - N/A   Clear
11:55 AM 27.0 °F 14.3 °F 17.6 °F 68% 30.35 in 10.0 mi ENE 17.3 mph - N/A   Clear
12:15 PM 28.0 °F 16.5 °F 18.5 °F 67% 30.35 in 10.0 mi NE 15.0 mph - N/A   Clear
12:35 PM 28.8 °F 17.9 °F 19.0 °F 67% 30.34 in 10.0 mi ENE 13.8 mph - N/A   Clear
12:55 PM 29.7 °F 19.1 °F 20.3 °F 68% 30.33 in 10.0 mi NE 13.8 mph 19.6 mph N/A   Scattered Clouds
1:15 PM 30.0 °F 20.5 °F 19.4 °F 65% 30.32 in 10.0 mi ENE 11.5 mph 24.2 mph N/A   Scattered Clouds
1:35 PM 30.0 °F 18.3 °F 17.6 °F 60% 30.30 in 10.0 mi ENE 17.3 mph 20.7 mph N/A   Clear
1:55 PM 30.4 °F 21.0 °F 17.2 °F 58% 30.30 in 10.0 mi NE 11.5 mph 24.2 mph N/A   Clear
2:15 PM 30.6 °F 22.4 °F 17.4 °F 58% 30.29 in 10.0 mi ENE 9.2 mph 20.7 mph N/A   Clear
2:35 PM 31.1 °F 20.1 °F 17.4 °F 57% 30.27 in 10.0 mi NE 16.1 mph - N/A   Clear
2:55 PM 31.1 °F 22.4 °F 16.9 °F 56% 30.26 in 10.0 mi NE 10.4 mph - N/A   Clear
3:15 PM 31.3 °F 23.3 °F 15.3 °F 52% 30.25 in 10.0 mi ENE 9.2 mph 18.4 mph N/A   Clear
3:35 PM 32.0 °F 23.0 °F 16.5 °F 53% 30.24 in 10.0 mi East 11.5 mph - N/A   Clear
3:55 PM 32.0 °F 22.5 °F 16.3 °F 52% 30.22 in 10.0 mi East 12.7 mph 17.3 mph N/A   Clear
4:15 PM 31.8 °F 23.9 °F 16.0 °F 52% 30.22 in 10.0 mi East 9.2 mph 17.3 mph N/A   Clear
4:35 PM 31.1 °F 22.4 °F 15.4 °F 52% 30.22 in 10.0 mi ENE 10.4 mph - N/A   Clear
4:55 PM 31.8 °F 23.9 °F 15.6 °F 51% 30.21 in 10.0 mi ENE 9.2 mph - N/A   Clear
5:15 PM 31.3 °F 23.9 °F 16.7 °F 55% 30.22 in 10.0 mi East 8.1 mph - N/A   Clear
5:35 PM 31.5 °F 24.9 °F 16.5 °F 54% 30.21 in 10.0 mi ENE 6.9 mph - N/A   Clear
5:55 PM 31.1 °F 22.4 °F 16.9 °F 56% 30.20 in 10.0 mi ENE 10.4 mph - N/A   Clear
6:15 PM 30.0 °F 21.1 °F 16.5 °F 57% 30.20 in 10.0 mi ENE 10.4 mph - N/A   Clear
6:35 PM 29.3 °F 20.8 °F 16.7 °F 59% 30.20 in 10.0 mi ENE 9.2 mph - N/A   Clear
6:55 PM 28.4 °F 19.7 °F 16.9 °F 62% 30.20 in 10.0 mi ENE 9.2 mph - N/A   Clear
7:15 PM 27.5 °F 19.3 °F 17.1 °F 65% 30.20 in 10.0 mi ENE 8.1 mph - N/A   Clear
7:35 PM 27.0 °F 19.5 °F 17.6 °F 68% 30.19 in 10.0 mi ENE 6.9 mph - N/A   Clear
7:55 PM 25.7 °F 19.0 °F 17.6 °F 71% 30.21 in 10.0 mi NE 5.8 mph - N/A   Clear
8:15 PM 25.3 °F 18.5 °F 17.2 °F 71% 30.20 in 10.0 mi NE 5.8 mph - N/A   Clear
8:35 PM 24.4 °F 17.5 °F 17.4 °F 75% 30.19 in 10.0 mi NE 5.8 mph - N/A   Clear
8:55 PM 23.9 °F 16.8 °F 17.1 °F 75% 30.19 in 10.0 mi NE 5.8 mph - N/A   Clear
9:15 PM 23.7 °F 17.8 °F 16.9 °F 75% 30.19 in 10.0 mi NE 4.6 mph - N/A   Clear
9:35 PM 23.5 °F - 16.9 °F 76% 30.19 in 10.0 mi Calm Calm - N/A   Clear
9:55 PM 23.4 °F - 17.2 °F 77% 30.17 in 10.0 mi Calm Calm - N/A   Clear
10:15 PM 23.5 °F - 18.1 °F 80% 30.18 in 10.0 mi Calm Calm - N/A   Clear
10:35 PM 22.6 °F 18.0 °F 16.7 °F 78% 30.17 in 10.0 mi East 3.5 mph - N/A   Clear
10:55 PM 21.9 °F 14.5 °F 16.7 °F 80% 30.16 in 10.0 mi ENE 5.8 mph - N/A   Clear
11:15 PM 22.1 °F 15.9 °F 17.6 °F 83% 30.15 in 10.0 mi East 4.6 mph - N/A   Clear
11:35 PM 22.1 °F 15.9 °F 17.2 °F 82% 30.13 in 10.0 mi ESE 4.6 mph - N/A   Clear
11:55 PM 21.6 °F 14.0 °F 16.7 °F 82% 30.13 in 10.0 mi East 5.8 mph - N/A   Clear